Location: Juzet
(42.9779°N, 0.7597°E)
Time: 19:15:05
(UTC+00:00)

Cosmos 1975 - Pass Details

Date: 14 July 2020
Orbit: 542 x 561 km, 82.5° (Epoch: 11 August)

Event Time Altitude Azimuth Distance (km) Brightness Sun altitude
Exits shadow 03:46:07 - 204° (SSW) 2,068 5.2 -7.5°
Reaches altitude 10° 03:46:46 10° 206° (SSW) 1,809 4.9 -7.4°
Maximum altitude 03:50:37 48° 281° (W) 721 3.2 -6.9°
Drops below altitude 10° 03:54:29 10° 357° (N) 1,818 6.0 -6.3°
Sets 03:56:43 0° 3° (N) 2,715 7.0 -6.0°
